| time (UTC) | temp F | wind direction | speed MPH | gust MPH | rain 1hr in | rain 24hr in | rain mn in | humidity % | barometer mb |
| 20260504222921 | 84 | 70 | 4.0 | 5.0 | 0.00 | 0.00 | 0.00 | 56 | 1010.1 |
| 20260504222419 | 83 | 121 | 1.0 | 3.0 | 0.00 | 0.00 | 0.00 | 57 | 1010.1 |
| 20260504221917 | 83 | 106 | 1.0 | 3.0 | 0.00 | 0.00 | 0.00 | 56 | 1010.2 |
| 20260504221413 | 83 | 113 | 0.0 | 3.0 | 0.00 | 0.00 | 0.00 | 57 | 1010.2 |
| 20260504220911 | 84 | 88 | 4.0 | 4.0 | 0.00 | 0.00 | 0.00 | 56 | 1010.4 |
| 20260504220407 | 83 | 52 | 2.0 | 3.0 | 0.00 | 0.00 | 0.00 | 56 | 1010.4 |
| 20260504215904 | 84 | 44 | 3.0 | 5.0 | 0.00 | 0.00 | 0.00 | 55 | 1010.2 |
| 20260504215401 | 84 | 27 | 0.0 | 6.0 | 0.00 | 0.00 | 0.00 | 56 | 1010.2 |
| 20260504214857 | 84 | 163 | 2.0 | 3.0 | 0.00 | 0.00 | 0.00 | 55 | 1010.1 |
| 20260504214354 | 84 | 48 | 4.0 | 5.0 | 0.00 | 0.00 | 0.00 | 55 | 1010.1 |
| 20260504213851 | 84 | 147 | 2.0 | 4.0 | 0.00 | 0.00 | 0.00 | 57 | 1010.4 |
| 20260504213346 | 84 | 150 | 2.0 | 4.0 | 0.00 | 0.00 | 0.00 | 56 | 1010.5 |
| 20260504212844 | 85 | 42 | 4.0 | 4.0 | 0.00 | 0.00 | 0.00 | 55 | 1010.7 |
| 20260504212340 | 84 | 82 | 1.0 | 7.0 | 0.00 | 0.00 | 0.00 | 55 | 1010.8 |
| 20260504211838 | 85 | 51 | 2.0 | 4.0 | 0.00 | 0.00 | 0.00 | 55 | 1010.9 |
| 20260504211334 | 85 | 111 | 3.0 | 4.0 | 0.00 | 0.00 | 0.00 | 54 | 1010.7 |
| 20260504210831 | 84 | 112 | 1.0 | 5.0 | 0.00 | 0.00 | 0.00 | 56 | 1010.9 |
| 20260504210328 | 85 | 39 | 3.0 | 5.0 | 0.00 | 0.00 | 0.00 | 55 | 1011.2 |
| 20260504205825 | 85 | 76 | 1.0 | 2.0 | 0.00 | 0.00 | 0.00 | 54 | 1011.1 |
| 20260504205323 | 85 | 142 | 1.0 | 3.0 | 0.00 | 0.00 | 0.00 | 55 | 1011.3 |
| 20260504204821 | 85 | 60 | 2.0 | 4.0 | 0.00 | 0.00 | 0.00 | 55 | 1011.3 |
| 20260504204319 | 85 | 132 | 1.0 | 4.0 | 0.00 | 0.00 | 0.00 | 55 | 1011.3 |
| 20260504203818 | 85 | 30 | 1.0 | 4.0 | 0.00 | 0.00 | 0.00 | 53 | 1011.3 |
| 20260504203315 | 85 | 149 | 2.0 | 4.0 | 0.00 | 0.00 | 0.00 | 53 | 1011.7 |
| 20260504202810 | 84 | 34 | 4.0 | 4.0 | 0.00 | 0.00 | 0.00 | 55 | 1011.6 |
| 20260504202308 | 86 | 167 | 2.0 | 7.0 | 0.00 | 0.00 | 0.00 | 53 | 1011.9 |
| 20260504201804 | 85 | 35 | 4.0 | 4.0 | 0.00 | 0.00 | 0.00 | 53 | 1011.9 |
| 20260504201302 | 85 | 54 | 2.0 | 4.0 | 0.00 | 0.00 | 0.00 | 54 | 1012.0 |
| 20260504200759 | 85 | 84 | 3.0 | 4.0 | 0.00 | 0.00 | 0.00 | 53 | 1012.1 |
| 20260504200255 | 85 | 166 | 2.0 | 5.0 | 0.00 | 0.00 | 0.00 | 53 | 1012.3 |
| 20260504195752 | 86 | 126 | 1.0 | 3.0 | 0.00 | 0.00 | 0.00 | 53 | 1012.1 |
| 20260504195248 | 85 | 97 | 0.0 | 3.0 | 0.00 | 0.00 | 0.00 | 54 | 1012.3 |
| 20260504194745 | 85 | 34 | 2.0 | 5.0 | 0.00 | 0.00 | 0.00 | 53 | 1012.4 |
| 20260504194241 | 85 | 164 | 2.0 | 3.0 | 0.00 | 0.00 | 0.00 | 53 | 1012.5 |
| 20260504193737 | 84 | 69 | 2.0 | 5.0 | 0.00 | 0.00 | 0.00 | 55 | 1012.6 |
| 20260504193235 | 86 | 100 | 2.0 | 4.0 | 0.00 | 0.00 | 0.00 | 51 | 1012.6 |
| 20260504192733 | 86 | 143 | 1.0 | 5.0 | 0.00 | 0.00 | 0.00 | 52 | 1012.6 |
| 20260504192231 | 86 | 106 | 2.0 | 3.0 | 0.00 | 0.00 | 0.00 | 52 | 1012.7 |
| 20260504191729 | 85 | 35 | 2.0 | 3.0 | 0.00 | 0.00 | 0.00 | 53 | 1012.9 |
| 20260504191226 | 84 | 66 | 2.0 | 4.0 | 0.00 | 0.00 | 0.00 | 55 | 1012.9 |
| 20260504190721 | 83 | 117 | 1.0 | 4.0 | 0.00 | 0.00 | 0.00 | 55 | 1013.0 |
| 20260504190218 | 83 | 237 | 0.0 | 4.0 | 0.00 | 0.00 | 0.00 | 55 | 1012.9 |
| 20260504185714 | 83 | 25 | 4.0 | 6.0 | 0.00 | 0.00 | 0.00 | 55 | 1013.0 |
| 20260504185211 | 83 | 174 | 0.0 | 4.0 | 0.00 | 0.00 | 0.00 | 56 | 1013.1 |
| 20260504184707 | 83 | 51 | 1.0 | 4.0 | 0.00 | 0.00 | 0.00 | 54 | 1013.0 |
| 20260504184203 | 83 | 113 | 2.0 | 4.0 | 0.00 | 0.00 | 0.00 | 55 | 1013.0 |
| 20260504183659 | 83 | 95 | 1.0 | 2.0 | 0.00 | 0.00 | 0.00 | 55 | 1013.1 |
| 20260504183156 | 82 | 82 | 4.0 | 4.0 | 0.00 | 0.00 | 0.00 | 56 | 1013.4 |
| 20260504182654 | 83 | 92 | 3.0 | 4.0 | 0.00 | 0.00 | 0.00 | 54 | 1013.7 |
| 20260504182152 | 82 | 149 | 0.0 | 4.0 | 0.00 | 0.00 | 0.00 | 57 | 1013.6 |
| 20260504181649 | 82 | 99 | 1.0 | 4.0 | 0.00 | 0.00 | 0.00 | 57 | 1013.8 |
| 20260504181147 | 81 | 133 | 2.0 | 5.0 | 0.00 | 0.00 | 0.00 | 57 | 1013.7 |
| 20260504180645 | 81 | 86 | 1.0 | 4.0 | 0.00 | 0.00 | 0.00 | 58 | 1013.8 |
| 20260504180143 | 79 | 110 | 2.0 | 3.0 | 0.00 | 0.00 | 0.00 | 62 | 1014.0 |
| 20260504175640 | 79 | 77 | 2.0 | 6.0 | 0.00 | 0.00 | 0.00 | 62 | 1013.7 |
| 20260504175137 | 78 | 98 | 2.0 | 3.0 | 0.00 | 0.00 | 0.00 | 62 | 1014.0 |
| 20260504174636 | 77 | 87 | 2.0 | 4.0 | 0.00 | 0.00 | 0.00 | 64 | 1014.0 |
| 20260504174131 | 77 | 93 | 2.0 | 5.0 | 0.00 | 0.00 | 0.00 | 64 | 1014.2 |
| 20260504173629 | 77 | 92 | 3.0 | 4.0 | 0.00 | 0.00 | 0.00 | 64 | 1014.3 |
| 20260504173126 | 76 | 80 | 1.0 | 4.0 | 0.00 | 0.00 | 0.00 | 65 | 1014.4 |
| 20260504172622 | 77 | 67 | 4.0 | 4.0 | 0.00 | 0.00 | 0.00 | 64 | 1014.6 |
| 20260504172119 | 77 | 83 | 2.0 | 4.0 | 0.00 | 0.00 | 0.00 | 64 | 1014.8 |
| 20260504171616 | 77 | 42 | 4.0 | 7.0 | 0.00 | 0.00 | 0.00 | 63 | 1014.8 |
| 20260504171113 | 75 | 70 | 2.0 | 7.0 | 0.00 | 0.00 | 0.00 | 67 | 1015.0 |
| 20260504170609 | 75 | 47 | 3.0 | 6.0 | 0.00 | 0.00 | 0.00 | 67 | 1014.8 |
| 20260504170107 | 75 | 74 | 0.0 | 5.0 | 0.00 | 0.00 | 0.00 | 67 | 1014.8 |
| 20260504150952 | 70 | 116 | 2.0 | 4.0 | 0.00 | 0.00 | 0.00 | 72 | 1015.6 |
| 20260504150449 | 70 | 54 | 2.0 | 5.0 | 0.00 | 0.00 | 0.00 | 73 | 1015.7 |
| 20260504140916 | 67 | 119 | 2.0 | 3.0 | 0.00 | 0.00 | 0.00 | 76 | 1015.5 |
| 20260504140412 | 66 | 112 | 1.0 | 4.0 | 0.00 | 0.00 | 0.00 | 77 | 1015.6 |
| 20260504130337 | 63 | 63 | 4.0 | 4.0 | 0.00 | 0.00 | 0.00 | 81 | 1015.6 |
| 20260504120300 | 60 | 89 | 2.0 | 3.0 | 0.00 | 0.00 | 0.00 | 85 | 1015.0 |
| 20260504110224 | 61 | 70 | 2.0 | 3.0 | 0.00 | 0.00 | 0.00 | 82 | 1015.5 |
| 20260504100148 | 62 | 76 | 2.0 | 4.0 | 0.00 | 0.00 | 0.00 | 80 | 1015.4 |
| 20260504090110 | 62 | 71 | 3.0 | 3.0 | 0.00 | 0.00 | 0.00 | 79 | 1015.6 |
| 20260504081541 | 63 | 60 | 2.0 | 3.0 | 0.00 | 0.00 | 0.00 | 76 | 1016.0 |
| 20260504081036 | 63 | 79 | 3.0 | 3.0 | 0.00 | 0.00 | 0.00 | 75 | 1016.1 |
| 20260504080533 | 63 | 87 | 2.0 | 3.0 | 0.00 | 0.00 | 0.00 | 76 | 1016.0 |
| 20260504050346 | 66 | 94 | 2.0 | 3.0 | 0.00 | 0.00 | 0.00 | 65 | 1017.8 |
| 20260504045843 | 67 | 97 | 2.0 | 3.0 | 0.00 | 0.00 | 0.00 | 66 | 1017.8 |
| 20260504045338 | 67 | 76 | 2.0 | 3.0 | 0.00 | 0.00 | 0.00 | 65 | 1018.0 |
| 20260504044835 | 67 | 75 | 3.0 | 6.0 | 0.00 | 0.00 | 0.00 | 64 | 1018.0 |
| 20260504044332 | 67 | 122 | 2.0 | 2.0 | 0.00 | 0.00 | 0.00 | 65 | 1018.1 |
| 20260504043830 | 67 | 94 | 2.0 | 3.0 | 0.00 | 0.00 | 0.00 | 63 | 1018.1 |
| 20260504043326 | 67 | 84 | 2.0 | 3.0 | 0.00 | 0.00 | 0.00 | 64 | 1018.0 |
| 20260504042824 | 67 | 93 | 2.0 | 2.0 | 0.00 | 0.00 | 0.00 | 64 | 1018.2 |
| 20260504042320 | 67 | 78 | 2.0 | 4.0 | 0.00 | 0.00 | 0.00 | 64 | 1018.1 |
| 20260504041816 | 67 | 99 | 1.0 | 4.0 | 0.00 | 0.00 | 0.00 | 62 | 1018.1 |
| 20260504041313 | 67 | 85 | 2.0 | 4.0 | 0.00 | 0.00 | 0.00 | 61 | 1018.4 |
| 20260504040809 | 67 | 104 | 2.0 | 3.0 | 0.00 | 0.00 | 0.00 | 62 | 1018.2 |
| 20260504040307 | 67 | 70 | 2.0 | 3.0 | 0.00 | 0.00 | 0.00 | 61 | 1018.3 |
| 20260504035802 | 67 | 96 | 2.0 | 3.0 | 0.00 | 0.00 | 0.00 | 62 | 1018.1 |
| 20260504035300 | 66 | 83 | 2.0 | 2.0 | 0.00 | 0.00 | 0.00 | 60 | 1018.1 |
| 20260504034757 | 65 | 89 | 2.0 | 3.0 | 0.00 | 0.00 | 0.00 | 62 | 1018.1 |
| 20260504034254 | 65 | 80 | 3.0 | 3.0 | 0.00 | 0.00 | 0.00 | 62 | 1018.1 |
| 20260504033752 | 65 | 65 | 2.0 | 2.0 | 0.00 | 0.00 | 0.00 | 62 | 1018.1 |
| 20260504033249 | 65 | 93 | 2.0 | 2.0 | 0.00 | 0.00 | 0.00 | 63 | 1018.0 |
| 20260504032746 | 65 | 91 | 2.0 | 2.0 | 0.00 | 0.00 | 0.00 | 61 | 1018.1 |
| 20260504032243 | 65 | 71 | 2.0 | 2.0 | 0.00 | 0.00 | 0.00 | 62 | 1018.0 |
| 20260504031739 | 65 | 93 | 1.0 | 2.0 | 0.00 | 0.00 | 0.00 | 61 | 1018.1 |
| 20260504031237 | 65 | 95 | 2.0 | 2.0 | 0.00 | 0.00 | 0.00 | 59 | 1018.1 |
| 20260504030732 | 65 | 89 | 2.0 | 2.0 | 0.00 | 0.00 | 0.00 | 59 | 1018.0 |
| 20260504030230 | 65 | 89 | 2.0 | 2.0 | 0.00 | 0.00 | 0.00 | 59 | 1018.0 |
| 20260504025726 | 66 | 93 | 2.0 | 2.0 | 0.00 | 0.00 | 0.00 | 58 | 1017.9 |
| 20260504025223 | 66 | 92 | 2.0 | 2.0 | 0.00 | 0.00 | 0.00 | 59 | 1017.9 |
| 20260504024720 | 66 | 86 | 2.0 | 2.0 | 0.00 | 0.00 | 0.00 | 59 | 1018.0 |
| 20260504024217 | 66 | 79 | 2.0 | 2.0 | 0.00 | 0.00 | 0.00 | 60 | 1018.0 |
| 20260504023714 | 66 | 93 | 2.0 | 2.0 | 0.00 | 0.00 | 0.00 | 58 | 1017.8 |
| 20260504023209 | 67 | 87 | 1.0 | 2.0 | 0.00 | 0.00 | 0.00 | 57 | 1017.8 |
| 20260504022706 | 67 | 88 | 2.0 | 2.0 | 0.00 | 0.00 | 0.00 | 57 | 1017.9 |
| 20260504022202 | 67 | 86 | 2.0 | 2.0 | 0.00 | 0.00 | 0.00 | 56 | 1018.0 |
| 20260504021700 | 68 | 81 | 2.0 | 2.0 | 0.00 | 0.00 | 0.00 | 57 | 1017.9 |
| 20260504021156 | 68 | 92 | 2.0 | 2.0 | 0.00 | 0.00 | 0.00 | 56 | 1018.1 |
| 20260504020653 | 68 | 78 | 2.0 | 2.0 | 0.00 | 0.00 | 0.00 | 57 | 1017.8 |
| 20260504020149 | 68 | 83 | 2.0 | 2.0 | 0.00 | 0.00 | 0.00 | 56 | 1017.9 |
| 20260504015646 | 69 | 84 | 1.0 | 2.0 | 0.00 | 0.00 | 0.00 | 55 | 1017.6 |
| 20260504015143 | 69 | 95 | 1.0 | 2.0 | 0.00 | 0.00 | 0.00 | 54 | 1017.5 |
| 20260504014638 | 69 | 83 | 2.0 | 2.0 | 0.00 | 0.00 | 0.00 | 55 | 1017.3 |
| 20260504014136 | 69 | 86 | 2.0 | 2.0 | 0.00 | 0.00 | 0.00 | 53 | 1017.4 |
| 20260504013633 | 70 | 96 | 2.0 | 2.0 | 0.00 | 0.00 | 0.00 | 52 | 1017.3 |
| 20260504013130 | 70 | 79 | 2.0 | 2.0 | 0.00 | 0.00 | 0.00 | 51 | 1017.3 |
| 20260504012627 | 70 | 92 | 2.0 | 2.0 | 0.00 | 0.00 | 0.00 | 51 | 1017.3 |
| 20260504012125 | 71 | 86 | 2.0 | 2.0 | 0.00 | 0.00 | 0.00 | 51 | 1017.3 |
| 20260504011622 | 71 | 73 | 2.0 | 2.0 | 0.00 | 0.00 | 0.00 | 51 | 1017.4 |
| 20260504011118 | 71 | 89 | 0.0 | 2.0 | 0.00 | 0.00 | 0.00 | 51 | 1017.3 |
| 20260504010614 | 72 | 87 | 1.0 | 2.0 | 0.00 | 0.00 | 0.00 | 49 | 1017.4 |
| 20260504010110 | 72 | 85 | 2.0 | 2.0 | 0.00 | 0.00 | 0.00 | 48 | 1017.2 |
| 20260504005607 | 73 | 61 | 2.0 | 2.0 | 0.00 | 0.00 | 0.00 | 47 | 1017.4 |
| 20260504005104 | 73 | 93 | 1.0 | 2.0 | 0.00 | 0.00 | 0.00 | 48 | 1017.4 |
| 20260504004602 | 73 | 50 | 2.0 | 2.0 | 0.00 | 0.00 | 0.00 | 48 | 1017.4 |
| 20260504004059 | 73 | 61 | 2.0 | 2.0 | 0.00 | 0.00 | 0.00 | 45 | 1017.3 |
| 20260504003555 | 74 | 101 | 2.0 | 2.0 | 0.00 | 0.00 | 0.00 | 47 | 1017.2 |
| 20260504003052 | 74 | 73 | 2.0 | 2.0 | 0.00 | 0.00 | 0.00 | 47 | 1017.4 |
| 20260504002549 | 75 | 93 | 2.0 | 2.0 | 0.00 | 0.00 | 0.00 | 45 | 1017.4 |
| 20260504002046 | 76 | 111 | 1.0 | 2.0 | 0.00 | 0.00 | 0.00 | 42 | 1017.4 |
| 20260504001544 | 76 | 48 | 2.0 | 4.0 | 0.00 | 0.00 | 0.00 | 41 | 1017.7 |
| 20260504001040 | 76 | 122 | 2.0 | 3.0 | 0.00 | 0.00 | 0.00 | 47 | 1017.7 |
| 20260504000537 | 76 | 98 | 1.0 | 2.0 | 0.00 | 0.00 | 0.00 | 44 | 1017.9 |
| 20260504000035 | 76 | 58 | 0.0 | 2.0 | 0.00 | 0.00 | 0.00 | 42 | 1017.6 |
| 20260503235533 | 77 | 46 | 2.0 | 2.0 | 0.00 | 0.00 | 0.00 | 41 | 1017.9 |
| 20260503235029 | 77 | 127 | 0.0 | 3.0 | 0.00 | 0.00 | 0.00 | 39 | 1017.8 |
| 20260503234527 | 77 | 137 | 2.0 | 3.0 | 0.00 | 0.00 | 0.00 | 39 | 1017.8 |
| 20260503234025 | 78 | 76 | 2.0 | 3.0 | 0.00 | 0.00 | 0.00 | 40 | 1018.0 |
| 20260503233521 | 77 | 95 | 2.0 | 2.0 | 0.00 | 0.00 | 0.00 | 42 | 1017.8 |
| 20260503233017 | 77 | 63 | 1.0 | 2.0 | 0.00 | 0.00 | 0.00 | 42 | 1017.9 |
| 20260503232514 | 77 | 89 | 2.0 | 3.0 | 0.00 | 0.00 | 0.00 | 42 | 1017.9 |
| 20260503232012 | 78 | 37 | 0.0 | 3.0 | 0.00 | 0.00 | 0.00 | 38 | 1018.0 |
| 20260503231509 | 78 | 120 | 1.0 | 5.0 | 0.00 | 0.00 | 0.00 | 38 | 1018.1 |
| 20260503231006 | 78 | 61 | 0.0 | 3.0 | 0.00 | 0.00 | 0.00 | 39 | 1018.0 |
| 20260503230503 | 78 | 76 | 0.0 | 3.0 | 0.00 | 0.00 | 0.00 | 40 | 1017.7 |
| 20260503230000 | 78 | 85 | 2.0 | 2.0 | 0.00 | 0.00 | 0.00 | 42 | 1017.8 |
| 20260503225456 | 78 | 121 | 2.0 | 2.0 | 0.00 | 0.00 | 0.00 | 39 | 1017.9 |
| 20260503224952 | 79 | 82 | 0.0 | 3.0 | 0.00 | 0.00 | 0.00 | 37 | 1018.0 |
| 20260503224449 | 78 | 131 | 1.0 | 4.0 | 0.00 | 0.00 | 0.00 | 37 | 1018.0 |
| 20260503223947 | 79 | 107 | 1.0 | 3.0 | 0.00 | 0.00 | 0.00 | 37 | 1018.0 |
| 20260503223445 | 79 | 59 | 2.0 | 4.0 | 0.00 | 0.00 | 0.00 | 37 | 1018.2 |